Wind_Speed
7 6 6 6 7 7 7 6 6 6 6 6 6 6 6 6 6 5 4 4 3 2 1 1 2 2 3 4 5 6 7 9 10 10 9 7 5 3 3 5 5 4 3 2 1 1 2 3 3 3 3 3 4 4 4 5 4 1 1 1 1 2 2 3 6 4 2 5 4 1 1 2 1 1 2 4 2 2 3 1 1 2 2 4 7 10 11 9
6 6 6 5 5 5 5 5 5 5 5 5 5 5 5 5 5 4 4 3 3 2 2 2 3 3 4 5 6 7 8 10 11 9 7 5 2 4 7 7 6 4 3 2 2 1 2 2 1 2 3 3 4 3 3 4 4 2 0 1 1 2 2 1 4 4 1 4 4 1 0 2 4 3 2 3 1 1 4 1 4 3 1 7 10 11 10 8
7 6 6 5 5 5 5 5 5 5 5 5 5 5 4 4 4 4 3 3 3 2 3 3 3 4 4 5 7 8 9 10 8 4 1 3 7 10 10 8 6 5 4 3 2 2 1 1 1 2 3 4 3 3 3 3 3 1 1 0 2 3 2 2 4 4 2 2 2 2 1 4 5 4 3 4 4 3 1 2 4 2 3 8 8 7 7 5
7 6 6 5 5 5 5 5 5 5 5 5 5 5 4 4 4 4 3 3 3 3 4 4 4 4 5 7 8 9 9 7 2 3 7 9 11 11 9 7 6 6 6 5 4 2 1 0 1 2 3 4 3 2 3 4 2 1 1 2 4 3 2 3 4 4 4 2 1 2 2 5 5 4 4 4 6 2 3 2 2 3 5 6 5 3 3 3
7 6 6 6 6 5 5 5 5 5 5 5 5 5 5 5 4 4 4 4 4 4 4 4 5 6 7 8 8 8 7 3 3 7 9 10 9 7 5 4 4 5 6 6 5 2 1 1 2 2 2 2 2 1 2 4 3 2 1 3 5 3 1 4 3 4 4 3 2 3 3 4 3 4 6 6 6 2 3 3 5 6 6 5 3 2 3 2
8 7 7 6 6 6 6 6 6 6 6 6 6 6 5 5 5 5 5 5 5 5 5 6 6 7 8 8 8 7 5 2 4 6 6 7 5 4 1 1 3 5 6 6 5 2 2 2 2 2 2 2 2 2 2 2 1 0 1 2 2 2 0 2 3 3 2 3 3 4 4 4 4 5 8 9 8 6 4 5 7 8 6 4 3 2 3 3
8 8 7 7 7 7 7 7 7 7 7 7 7 6 7 6 6 6 6 6 6 6 6 7 8 8 8 7 7 5 4 3 3 4 4 5 5 5 5 5 6 6 7 5 4 2 2 2 2 3 2 1 1 2 2 1 0 2 1 3 2 3 3 1 3 4 5 5 5 6 5 7 6 5 6 7 9 10 8 6 6 7 6 4 3 2 4 5
9 9 9 8 8 8 8 8 8 8 8 8 8 8 8 8 7 7 7 7 7 7 8 8 8 8 7 6 6 5 6 5 5 6 6 8 8 8 9 8 8 7 6 4 3 2 3 3 3 4 2 1 2 3 1 1 2 1 0 3 2 3 4 4 6 9 9 9 9 8 8 8 7 6 4 4 8 8 7 6 5 7 7 6 5 4 4 5
10 10 10 9 9 9 9 9 9 9 9 9 9 9 9 9 8 8 8 8 8 8 9 9 8 7 7 6 6 5 4 3 4 5 6 8 9 9 10 9 8 7 5 4 2 2 3 3 4 3 1 3 3 3 1 2 1 1 0 1 2 4 5 7 9 9 9 8 7 7 8 7 6 7 4 4 7 6 6 6 7 8 8 7 6 5 4 4
11 11 11 10 10 11 10 10 10 10 10 11 11 10 10 10 9 9 9 9 9 9 9 8 8 7 7 6 5 4 3 3 2 3 4 5 6 7 7 7 7 6 5 4 2 3 4 3 3 4 2 4 4 2 2 1 1 2 1 3 5 5 7 8 7 7 7 7 7 7 6 2 3 5 2 4 8 7 7 7 8 8 7 6 5 3 3 3
12 12 12 12 12 12 12 12 12 12 12 12 11 11 11 11 10 10 10 10 10 9 9 9 8 8 8 7 5 4 3 4 3 3 4 4 5 6 6 6 6 5 5 4 4 4 4 3 3 4 2 4 5 2 2 1 1 1 4 6 5 6 7 6 5 5 5 4 6 7 3 2 4 4 1 4 9 9 8 8 7 7 6 6 4 3 4 4
14 13 13 13 13 13 13 13 13 13 13 13 12 12 12 12 12 11 11 11 10 10 9 9 9 8 8 9 10 9 8 8 7 6 7 6 6 6 6 5 5 5 5 5 5 4 4 3 3 3 2 4 4 2 2 2 0 1 3 5 5 6 6 2 0 2 3 2 6 5 3 4 6 4 1 6 11 10 9 8 7 7 6 5 4 5 6 5
15 15 15 14 14 15 15 14 14 14 14 14 13 13 13 13 13 12 12 11 11 10 10 9 9 9 8 9 10 10 9 10 10 10 10 9 9 8 8 7 6 6 6 6 6 4 4 4 4 4 5 5 3 2 3 3 1 1 1 3 6 6 3 1 2 1 2 3 7 5 4 4 5 3 3 8 12 10 8 8 8 7 6 5 5 7 7 6
17 16 16 15 15 16 16 16 15 15 15 14 14 14 14 14 13 13 13 12 11 11 10 10 9 9 8 9 10 10 10 10 11 11 11 11 10 10 9 8 8 7 8 7 6 5 5 5 6 6 6 5 3 4 3 2 1 2 1 1 2 3 1 3 2 2 1 3 6 6 5 3 4 6 6 10 12 10 8 8 9 8 7 7 7 8 8 7
18 18 17 16 16 16 17 17 16 16 16 15 15 15 14 14 14 13 13 12 12 11 11 10 9 8 8 9 11 11 12 13 13 13 13 12 11 10 9 9 9 9 9 8 6 6 6 7 6 5 5 6 6 5 1 0 1 1 3 2 2 2 1 2 2 2 1 2 4 6 5 2 3 7 7 10 13 12 9 9 10 9 8 9 9 8 8 7
20 19 18 17 16 16 17 17 17 17 16 15 15 15 15 14 14 13 13 12 12 11 10 9 10 8 6 8 10 10 12 12 13 13 13 13 11 10 9 9 9 9 8 7 6 6 8 9 7 6 6 5 5 3 2 2 2 1 3 4 2 3 2 0 2 2 2 1 3 5 4 2 3 7 6 9 14 15 11 9 10 10 9 10 9 8 7 6
21 20 19 18 17 16 16 17 18 18 16 16 15 15 14 14 13 13 13 12 12 11 10 9 8 7 8 10 10 11 13 12 12 12 11 11 11 9 9 10 9 8 7 7 7 8 9 9 6 5 4 2 2 3 3 4 5 2 2 4 3 4 4 2 2 3 1 2 3 3 5 5 4 7 6 9 14 16 12 9 11 12 11 10 9 8 7 7
22 22 21 19 18 17 17 17 18 18 16 16 15 14 14 13 13 12 13 13 12 9 9 10 7 3 8 13 12 10 11 11 11 11 10 10 10 10 10 9 9 9 8 8 8 8 7 6 3 2 2 2 4 5 6 5 4 2 3 4 4 4 6 5 2 1 1 3 4 4 7 8 5 8 8 8 13 15 12 11 13 13 11 10 9 9 9 8
22 23 22 20 18 18 18 18 18 18 16 16 15 14 13 11 11 12 14 13 11 7 5 8 10 5 3 7 12 10 8 8 9 11 11 11 12 12 11 9 9 11 9 7 6 7 6 4 3 3 5 7 8 10 10 3 2 1 2 3 4 5 5 3 2 1 1 3 8 8 10 11 8 8 10 10 12 13 11 11 13 12 12 12 11 11 10 8
23 23 23 21 19 18 19 18 18 18 17 16 15 12 10 8 6 8 13 17 18 16 12 10 12 11 4 2 7 9 7 7 8 10 11 12 13 12 11 10 10 10 6 4 4 5 5 4 5 8 6 8 12 13 7 2 4 1 1 3 6 7 6 1 3 1 1 4 8 9 11 14 12 9 9 10 11 12 12 12 12 12 12 13 12 12 10 8
24 24 23 22 20 19 19 19 19 19 17 16 15 12 8 8 6 3 7 13 17 20 19 18 16 15 12 8 7 8 8 7 8 11 12 13 14 11 11 12 9 6 4 4 4 4 4 6 10 9 3 5 10 9 4 1 2 2 3 5 6 7 7 1 3 1 1 4 6 4 9 14 14 12 7 10 10 12 13 12 11 11 12 13 12 11 9 7
24 24 24 22 21 20 19 19 20 20 17 16 17 15 11 11 10 7 6 8 12 16 17 19 21 20 20 17 12 10 10 8 8 13 14 16 17 12 11 11 7 5 5 5 4 3 4 9 11 4 6 4 3 5 5 5 4 3 3 4 6 4 4 3 3 2 2 4 4 1 7 12 13 12 7 10 10 8 10 10 8 9 11 11 11 10 9 8
25 25 24 23 21 20 20 20 20 20 18 18 18 18 15 12 10 10 8 6 11 16 18 20 22 24 25 23 20 17 14 10 11 16 18 19 19 15 14 12 6 4 6 8 8 5 5 7 6 6 8 6 3 4 7 5 5 6 5 5 6 2 2 5 2 3 2 2 3 3 7 11 12 11 7 6 5 2 5 8 9 11 11 10 12 11 9 9
25 25 25 22 20 20 19 17 18 19 20 20 20 19 16 13 10 8 7 5 7 11 17 21 21 25 27 24 21 20 19 17 14 16 21 23 20 15 13 10 6 5 8 12 11 10 6 0 2 7 9 8 5 5 8 6 6 8 8 8 8 4 6 8 1 2 2 3 2 4 8 10 8 9 6 3 2 2 4 7 9 13 13 13 13 12 11 11
24 26 25 22 20 19 17 16 18 20 21 21 19 17 15 12 8 5 4 4 6 5 10 16 17 21 25 23 19 19 18 18 17 18 21 26 24 13 8 9 7 7 10 10 8 10 7 4 7 7 6 8 7 6 9 9 6 6 9 11 12 10 8 7 1 1 5 4 2 2 7 5 1 5 4 3 2 5 6 8 10 10 12 14 13 12 13 13
24 25 24 22 19 17 15 15 18 20 21 20 17 15 14 10 6 3 1 3 5 4 4 9 11 12 16 18 20 18 10 11 18 21 21 27 26 15 7 7 4 5 7 7 3 5 3 4 6 6 7 9 8 7 8 9 6 5 4 8 12 11 7 6 4 3 5 3 1 1 6 5 3 5 2 4 4 6 7 9 11 11 11 14 14 14 15 15
24 25 24 22 19 18 17 17 17 18 18 16 15 15 13 11 8 3 1 4 7 6 8 8 9 9 11 15 24 18 3 6 14 18 23 27 25 16 9 7 4 2 5 5 3 2 4 6 4 5 7 7 8 7 7 10 8 3 1 3 8 9 8 8 7 6 4 2 0 3 3 4 7 6 2 3 5 7 10 11 12 13 13 15 16 17 17 16
22 24 24 23 21 20 20 18 17 17 15 11 13 16 14 14 11 6 2 6 3 6 6 6 8 11 13 19 25 14 3 8 8 11 24 26 22 13 8 8 7 5 7 6 6 2 4 7 8 9 8 7 7 2 8 13 7 1 2 2 4 4 5 6 6 6 2 2 4 5 4 4 8 5 1 2 5 9 10 11 13 15 16 17 17 18 18 17
20 22 22 23 22 21 21 20 19 16 12 11 15 18 17 17 11 6 1 5 2 6 4 7 9 9 14 18 16 6 4 5 1 8 20 20 19 10 4 7 7 6 5 4 5 0 2 2 5 8 7 6 3 4 4 11 5 4 6 6 6 4 3 3 3 3 2 3 8 7 9 6 6 5 4 2 4 8 5 6 10 15 17 17 16 18 19 19
19 19 20 22 25 26 25 23 21 16 12 15 19 20 21 17 8 4 5 5 3 4 4 7 7 8 15 14 6 2 3 1 4 13 13 10 13 7 4 7 6 5 3 3 3 0 2 1 0 4 4 3 6 5 3 0 4 9 8 6 6 4 3 2 1 1 2 6 7 7 13 10 5 4 7 5 2 2 0 2 6 12 15 16 17 19 21 23
21 20 20 25 29 30 28 25 22 18 17 19 21 25 22 10 2 5 7 2 0 3 5 5 4 8 15 11 4 5 3 2 7 13 8 6 8 6 6 7 4 3 2 4 4 1 1 2 1 3 4 6 7 5 5 4 3 6 4 5 5 2 2 2 2 2 6 6 2 1 7 9 8 4 4 4 1 1 1 1 4 11 14 15 19 22 24 26
24 24 23 26 30 30 30 25 20 19 20 20 25 27 16 4 3 8 5 4 1 5 5 4 4 8 11 6 3 6 4 3 7 8 5 5 6 8 7 6 6 5 4 7 5 1 3 5 2 2 5 7 6 5 5 2 2 3 4 7 6 3 3 4 3 4 6 4 2 2 3 5 8 7 7 6 1 2 1 2 2 9 13 17 22 25 26 29
26 28 27 28 29 31 31 22 17 23 23 21 26 20 7 4 9 11 7 4 1 1 4 4 4 6 9 6 3 5 3 2 7 5 2 3 5 8 5 3 4 2 2 6 5 3 3 2 4 4 4 10 11 8 5 5 6 8 8 8 8 5 4 5 4 3 5 1 3 1 3 3 4 6 10 7 2 3 2 3 2 6 12 19 25 27 28 31
29 30 32 33 31 31 29 23 21 25 25 24 23 12 4 9 11 10 11 7 0 3 3 4 6 6 7 4 2 6 3 1 8 6 3 5 5 8 7 6 7 2 2 4 3 6 6 3 7 8 5 12 16 8 4 7 8 8 5 4 5 5 4 5 4 3 2 2 2 1 3 5 3 2 3 2 2 2 2 4 4 6 12 19 24 28 30 32
30 30 34 37 37 36 32 27 25 26 28 26 16 6 8 13 11 8 9 6 2 2 3 4 7 7 5 2 0 4 3 2 7 6 4 7 6 7 8 8 10 5 4 5 3 4 6 5 3 3 3 13 14 5 5 8 7 4 1 1 4 4 2 1 1 0 2 1 2 4 3 3 2 1 1 0 2 4 3 4 5 6 11 18 24 28 32 34
31 32 35 39 44 43 38 31 27 29 33 26 9 6 12 13 6 5 6 7 6 7 7 4 4 5 5 3 3 6 3 1 7 6 4 5 5 5 5 6 12 12 8 7 3 3 4 2 2 2 1 6 6 3 5 3 4 4 3 5 3 1 1 1 1 3 1 5 3 5 4 3 1 2 3 4 4 5 5 4 6 6 10 16 24 31 35 37
36 36 37 43 48 48 42 35 31 36 38 22 8 10 11 9 6 7 5 6 9 12 10 5 6 7 7 5 6 9 5 3 6 6 4 4 4 7 7 5 11 16 14 8 2 3 3 1 2 3 2 1 1 3 3 1 1 5 5 6 3 2 1 1 3 1 3 7 3 4 8 6 5 4 3 5 6 7 7 6 6 7 11 16 24 33 38 39
42 40 40 46 49 50 46 36 33 41 35 13 8 14 11 9 11 10 7 8 10 12 9 8 7 7 8 7 6 9 9 6 7 6 5 5 4 9 12 7 10 18 20 10 2 2 4 3 2 2 1 2 2 3 3 0 1 0 2 4 3 2 4 4 4 3 4 6 4 4 7 7 7 6 5 8 10 10 9 7 7 9 13 18 25 33 37 38
44 39 39 47 51 51 47 38 40 43 25 6 10 15 10 8 11 14 15 11 9 10 9 10 8 4 6 7 5 8 10 8 10 8 6 6 4 8 14 10 8 16 21 14 4 1 3 4 2 1 1 3 3 5 7 6 2 2 1 3 0 2 3 3 3 2 3 5 4 3 4 5 7 8 11 13 12 10 9 7 8 13 18 24 28 33 38 40
45 30 29 47 53 50 47 42 42 33 13 7 14 11 6 7 9 16 23 17 8 8 9 9 9 6 5 6 3 6 8 7 9 8 6 8 6 5 12 12 6 9 16 13 4 0 3 4 4 2 1 3 5 7 9 10 8 6 6 7 5 2 0 2 2 1 2 4 4 4 5 3 3 4 10 13 10 8 9 8 9 13 21 27 28 32 38 42
42 19 20 42 50 51 49 38 28 19 8 8 14 13 7 6 7 13 23 23 14 9 7 7 9 8 6 6 4 4 6 5 8 8 5 9 9 4 11 17 10 9 10 6 4 5 4 3 3 3 4 6 4 2 2 3 5 7 8 10 11 8 5 4 6 2 1 3 2 3 5 2 3 0 1 4 3 3 5 6 6 10 18 23 25 29 35 40
30 12 18 36 45 53 48 23 12 13 9 12 19 16 7 6 6 12 17 21 17 10 5 4 8 8 6 7 6 6 7 6 7 8 5 9 13 7 12 22 20 20 14 6 7 9 4 1 3 2 4 4 0 2 1 3 2 2 4 6 8 8 8 8 7 3 3 3 0 1 4 1 2 1 1 2 2 1 3 7 6 8 14 18 22 27 31 37
19 11 20 34 42 54 42 11 8 13 9 18 23 16 9 7 10 13 14 16 14 10 8 5 6 10 7 5 6 7 9 7 9 11 7 6 10 7 11 23 24 19 12 4 4 6 4 2 5 2 0 1 1 1 1 1 1 4 6 5 6 8 7 4 2 2 5 5 4 2 5 2 1 1 1 2 2 2 6 11 11 10 12 15 19 24 29 34
18 12 22 36 46 52 33 7 9 13 12 19 18 14 15 15 13 15 13 14 13 9 10 9 8 11 8 3 6 10 11 9 9 11 8 4 5 6 13 26 25 16 9 5 8 12 8 4 5 4 2 3 2 3 4 4 5 7 7 6 8 8 5 2 1 1 5 7 9 7 6 4 3 1 1 2 3 4 7 12 14 13 13 14 15 20 25 30
16 11 16 36 52 52 33 20 18 13 14 19 16 16 19 13 15 22 17 14 16 13 11 10 9 10 7 4 7 10 12 12 9 7 7 4 2 2 11 25 27 17 9 7 14 18 10 5 8 8 7 9 8 6 7 5 5 4 4 7 11 13 11 6 3 5 7 6 10 10 7 3 2 1 2 3 3 5 7 10 13 13 13 13 14 17 21 25
9 7 7 20 39 43 36 36 29 13 13 19 14 16 20 13 13 22 20 17 19 19 13 7 7 10 8 10 12 11 12 13 7 3 6 6 3 1 6 18 22 16 10 12 23 20 4 3 12 13 13 12 8 4 3 7 7 8 8 11 13 15 15 9 5 7 6 4 7 12 7 4 4 5 6 6 6 7 7 8 12 14 14 15 16 17 19 22
7 5 6 8 15 20 21 28 25 13 16 21 12 11 22 20 11 11 17 19 21 22 14 4 8 13 14 16 16 11 12 12 7 6 7 5 3 1 3 10 13 13 9 12 21 15 2 5 15 17 18 12 3 1 4 9 13 14 12 13 13 13 15 14 12 8 7 5 9 7 8 8 10 11 10 9 9 8 6 9 14 15 16 16 16 16 17 19
11 4 11 10 5 5 9 16 20 17 18 19 11 9 17 22 17 12 14 15 17 21 13 6 12 20 22 21 15 9 10 10 10 11 8 5 4 2 2 3 6 9 8 7 11 8 1 8 12 13 18 13 1 1 5 7 9 10 13 16 15 15 17 18 18 11 9 10 12 7 13 15 11 11 11 11 11 11 10 14 16 14 14 15 16 16 17 18
11 6 11 13 6 2 4 5 14 18 18 15 12 12 15 19 22 17 9 6 10 17 17 14 17 21 22 19 14 11 12 12 13 13 8 7 7 5 4 2 4 7 7 5 6 5 3 6 5 6 13 13 5 3 4 5 4 4 10 13 14 16 18 18 18 14 12 16 13 4 8 12 5 8 9 10 13 15 14 14 15 14 16 17 18 19 19 20
12 9 10 10 7 5 6 5 5 13 15 14 12 12 13 17 21 17 10 10 10 12 17 22 23 20 18 16 15 16 18 20 19 14 11 9 7 6 6 4 4 6 6 5 4 4 5 4 3 4 7 9 6 4 3 4 4 4 7 11 12 11 11 13 15 12 11 14 10 2 6 10 5 8 7 10 14 14 12 14 16 17 17 19 20 21 21 21
12 13 14 10 3 5 5 2 2 7 10 12 12 12 13 17 20 15 10 13 15 11 14 22 23 16 13 15 17 19 22 21 17 12 16 17 13 12 9 5 8 9 6 5 4 4 6 4 3 4 8 8 6 7 6 2 0 5 12 16 13 9 9 10 11 11 13 13 9 7 11 10 5 7 7 9 12 11 10 14 17 17 17 18 19 20 20 19
10 11 16 14 4 3 5 1 2 5 6 6 10 12 12 13 16 14 8 9 14 14 13 18 18 11 10 14 19 24 26 20 14 12 18 21 16 13 12 11 16 15 9 7 4 3 6 5 4 7 9 6 4 8 8 4 1 8 15 16 16 12 10 9 9 12 16 13 10 11 12 7 5 7 7 6 7 8 11 15 18 17 17 17 18 19 18 17
Wind_Direction
181 183 186 188 186 186 185 182 175 172 175 169 165 166 164 165 168 171 172 175 186 205 233 268 303 311 318 326 331 332 332 329 325 319 312 303 289 260 193 161 146 127 105 69 66 38 11 12 26 35 55 85 71 71 74 55 48 74 174 203 162 167 171 165 161 153 109 124 139 124 11 316 322 12 331 315 249 235 291 319 263 196 189 265 281 286 287 285
187 188 192 194 194 196 195 194 189 184 188 185 182 181 178 181 181 185 186 195 207 218 246 276 295 309 318 323 330 331 330 327 323 315 308 301 247 166 146 135 125 105 73 43 42 357 344 358 33 49 69 94 75 71 75 43 36 61 150 251 151 129 100 130 148 144 126 116 130 154 150 299 312 326 317 295 218 239 308 146 159 157 233 290 299 299 299 297
197 196 199 202 204 210 208 208 205 200 201 198 198 198 196 197 198 202 203 213 226 242 265 282 295 310 318 323 330 329 332 331 324 321 349 125 130 130 128 122 107 81 57 40 24 326 314 337 76 77 90 97 79 82 77 35 28 80 226 272 121 122 103 158 169 171 178 117 130 173 216 286 297 290 265 296 292 256 282 129 154 170 272 288 292 292 297 299
212 209 210 213 215 222 223 224 224 218 216 214 213 213 214 216 217 223 229 241 254 267 278 291 302 314 320 324 325 328 335 331 321 123 124 126 125 125 123 112 87 60 41 29 9 323 271 256 106 94 99 93 64 80 64 21 25 117 296 35 105 148 163 149 178 191 199 205 171 174 245 277 271 258 254 287 293 246 138 148 209 272 279 277 276 279 303 316
227 226 226 227 228 234 237 237 240 238 233 230 230 229 231 233 237 245 253 262 271 279 289 300 309 316 319 321 322 329 335 324 133 127 133 133 129 130 125 101 60 34 24 16 1 329 229 197 119 98 85 84 46 69 67 30 44 128 66 50 104 159 150 116 155 175 187 212 189 198 246 267 239 245 257 256 276 288 128 197 249 279 271 258 269 294 318 321
239 237 234 238 240 242 245 247 248 248 246 245 242 241 245 247 252 259 264 269 276 284 294 302 308 311 314 317 318 321 315 289 137 137 147 151 153 164 190 320 346 358 358 358 351 321 209 180 128 101 67 74 33 37 86 70 32 19 104 96 139 189 227 111 171 192 198 207 206 238 256 248 238 255 259 248 255 262 243 241 258 264 242 230 258 285 300 293
245 244 242 242 244 248 249 250 252 253 253 252 252 252 254 256 259 264 269 275 282 289 296 302 304 307 308 309 312 305 287 277 198 206 213 202 213 236 264 287 301 320 335 341 336 285 201 183 145 123 102 92 93 94 105 102 288 299 111 138 186 218 245 223 217 241 241 229 236 257 260 246 244 259 256 238 241 251 251 247 248 236 213 218 240 260 286 284
249 249 248 246 247 250 252 255 256 257 258 258 259 258 259 260 263 268 272 278 283 289 293 297 298 298 299 297 302 293 277 268 234 235 234 227 238 252 266 280 287 304 318 324 324 254 202 194 169 143 115 79 128 144 129 185 178 261 67 132 185 220 244 263 262 266 259 253 254 250 249 254 250 253 255 229 234 241 240 230 213 204 198 212 226 236 264 280
259 255 252 251 252 253 255 258 259 259 261 262 262 261 263 263 265 270 273 278 282 286 289 290 291 288 287 288 290 286 269 254 229 231 232 234 242 252 262 272 277 290 295 291 290 227 203 204 187 170 142 121 142 146 153 244 190 76 65 142 226 237 267 279 273 272 264 254 248 236 245 258 248 244 245 227 229 222 214 206 189 191 199 209 216 226 250 269
267 264 260 256 254 255 257 259 260 262 262 262 262 263 264 265 267 269 271 275 278 281 284 283 283 280 279 280 278 272 241 232 238 233 234 235 239 248 257 263 268 277 276 260 239 203 189 195 178 165 147 136 149 144 160 251 357 65 334 287 266 274 287 280 268 260 258 253 234 234 252 254 208 232 228 203 211 203 195 194 191 195 205 216 222 244 273 273
267 269 267 263 258 256 255 258 260 260 261 261 262 263 264 265 265 267 268 272 274 277 278 276 277 274 273 269 245 238 245 247 251 245 242 238 240 247 250 251 256 258 246 226 210 181 179 189 164 161 150 146 154 148 178 202 16 23 325 292 264 293 292 268 262 245 239 244 213 219 243 118 173 220 239 197 200 193 186 192 202 209 219 234 256 298 304 299
263 268 270 268 264 260 256 256 258 258 260 260 261 262 262 263 262 264 266 269 272 273 272 272 272 269 270 266 250 249 258 255 254 251 247 247 249 247 245 245 245 240 222 211 209 192 193 191 179 191 158 151 158 155 175 157 288 342 350 307 285 297 286 251 306 194 191 186 158 177 230 201 191 205 202 191 191 183 183 199 212 220 233 250 287 303 300 302
259 262 266 270 268 264 259 255 255 256 257 257 258 258 257 259 260 261 263 266 268 269 269 268 268 267 267 266 259 256 255 253 254 253 251 250 251 247 244 246 245 237 217 210 213 207 208 198 194 192 158 154 163 157 134 108 302 284 75 320 303 292 273 97 42 214 186 169 158 174 257 223 173 156 162 174 177 177 185 211 224 230 246 267 287 290 291 297
256 257 260 265 267 267 263 258 254 253 254 254 253 254 255 256 257 259 261 263 265 264 265 264 264 265 262 261 263 260 254 253 251 250 251 250 248 247 245 244 239 231 221 215 217 217 214 199 189 176 159 154 143 145 130 84 5 311 234 223 285 284 232 108 32 311 216 154 165 198 256 248 151 139 171 179 179 186 200 219 231 239 253 268 275 276 281 290
254 256 257 259 262 264 262 259 254 251 250 250 250 252 252 253 254 257 258 259 260 261 262 262 262 262 263 262 261 260 254 250 249 248 249 248 245 242 237 231 225 218 216 215 216 215 194 177 173 153 138 142 148 156 186 245 84 0 265 227 180 242 239 123 60 359 303 119 164 210 249 269 156 145 176 194 193 199 213 227 234 242 251 259 264 264 271 284
253 254 255 257 257 258 259 257 253 250 248 246 247 249 250 252 253 254 256 256 256 257 257 259 257 254 259 263 256 253 251 245 245 246 245 243 238 231 225 218 214 212 212 212 206 193 174 162 153 138 137 146 161 190 237 250 232 173 245 257 220 223 266 273 105 56 350 94 177 222 258 287 141 145 176 196 199 205 219 232 235 241 247 247 249 252 259 275
252 252 254 255 254 252 252 252 251 249 246 243 243 245 247 249 250 252 253 251 252 253 254 255 256 256 254 254 252 248 246 243 242 242 238 235 227 217 212 205 202 202 196 187 175 168 165 154 144 144 145 156 174 191 221 246 244 198 201 252 252 229 249 260 143 98 44 229 218 220 247 258 147 142 179 193 198 210 220 228 233 238 240 237 236 238 241 252
251 252 252 253 252 250 246 247 247 245 243 240 241 242 243 245 247 249 249 248 247 250 257 244 232 259 253 237 237 241 243 240 236 233 227 217 209 201 201 201 195 185 166 159 161 160 156 140 147 172 157 184 181 185 212 241 256 230 208 238 258 227 230 245 235 92 95 235 244 223 240 251 196 162 183 197 200 211 221 223 227 231 231 228 226 227 231 237
249 251 251 251 249 246 244 242 242 242 238 236 237 236 238 243 247 249 248 241 227 221 242 220 203 214 258 221 222 230 235 230 223 222 214 202 198 194 195 196 183 171 157 163 169 157 156 133 147 213 207 197 193 199 217 247 11 291 235 256 270 255 243 230 205 28 37 259 252 241 251 258 236 193 184 200 211 213 220 220 219 221 221 222 221 222 225 229
245 247 249 249 244 242 243 240 239 238 232 231 231 228 231 231 238 250 241 235 232 232 236 227 214 220 234 203 204 208 209 214 215 211 205 199 194 187 184 176 167 170 170 175 160 152 176 186 204 222 216 195 198 207 219 40 65 83 271 264 266 266 267 169 118 45 28 264 254 248 262 266 262 244 189 187 211 214 215 212 207 210 214 219 219 219 222 224
241 242 244 244 240 237 238 236 236 233 227 226 223 216 215 210 213 242 238 242 247 244 242 244 239 231 234 240 221 210 204 204 207 202 199 195 186 178 176 168 163 180 173 116 108 139 177 216 229 228 190 178 206 209 201 128 153 220 252 258 263 259 266 241 119 110 119 252 256 240 261 262 261 259 194 170 205 216 214 209 203 205 211 219 218 217 221 222
238 238 239 239 236 233 232 231 232 230 223 219 218 215 217 221 228 245 263 271 263 251 243 240 239 236 237 237 230 220 204 195 202 199 193 187 184 182 173 172 188 184 140 126 133 154 198 232 235 196 101 120 188 198 201 219 225 229 233 255 263 257 280 272 147 140 182 235 256 238 264 265 261 255 204 183 210 217 212 210 202 204 211 219 218 218 220 220
235 233 234 234 231 229 228 227 228 228 221 216 217 218 222 230 233 244 262 282 273 258 244 237 236 235 233 232 230 220 206 207 210 201 195 187 185 188 177 176 194 155 147 185 193 191 205 239 237 140 135 153 149 178 194 212 230 226 219 237 247 221 260 258 156 113 183 229 292 312 282 274 266 246 208 181 202 212 214 214 211 212 214 219 220 221 217 214
233 228 230 228 224 225 224 223 224 224 221 217 221 221 222 229 231 249 267 274 277 258 245 242 237 235 232 230 230 218 214 223 219 207 202 191 182 184 186 179 165 158 189 202 205 218 216 132 119 149 169 184 168 168 186 205 228 221 216 227 242 226 223 244 325 56 224 208 246 288 285 277 260 237 217 143 154 214 211 209 215 216 217 221 222 221 213 209
229 226 226 221 218 219 217 217 219 220 222 220 221 219 218 223 224 249 278 275 266 243 246 240 230 235 232 226 224 211 213 225 223 216 206 197 187 173 176 179 176 201 202 190 204 236 234 110 124 148 173 189 185 187 193 204 229 228 215 219 237 245 236 235 236 333 267 238 187 248 270 268 247 238 223 128 180 216 199 205 215 213 215 220 219 215 211 207
227 225 224 217 213 210 205 214 222 221 223 222 215 208 210 208 198 210 249 293 259 195 193 215 210 222 218 210 201 191 207 227 220 217 205 200 195 182 170 168 187 228 177 154 204 253 233 132 132 155 174 183 199 216 195 192 227 250 215 209 228 241 238 224 203 213 258 271 81 230 259 264 305 279 189 137 222 220 203 212 211 205 207 213 212 209 208 203
227 222 220 215 209 203 199 209 221 219 220 222 207 193 191 180 165 146 124 281 257 167 146 179 183 187 192 188 180 176 198 187 191 205 197 195 196 194 201 174 161 209 135 132 219 228 155 156 157 172 174 181 206 221 182 181 216 241 80 188 208 215 217 212 207 217 250 318 100 187 240 275 279 280 116 138 253 236 215 214 206 201 204 208 210 207 204 196
227 220 218 212 207 211 211 213 219 214 214 213 191 183 174 162 154 128 159 267 249 127 135 162 161 171 172 169 172 169 121 142 159 193 188 189 190 192 219 200 172 163 154 179 217 209 142 175 190 183 183 200 211 205 160 178 212 267 73 116 160 182 204 193 202 223 249 313 246 191 164 256 259 251 134 120 269 260 229 207 197 194 198 206 206 203 200 188
224 220 218 209 205 217 222 224 227 219 206 184 173 175 162 152 146 115 194 255 175 109 116 147 145 154 150 156 173 169 118 138 111 169 174 182 186 186 217 195 165 141 160 226 239 328 61 196 204 187 198 210 179 45 155 188 202 135 121 99 95 85 93 139 203 212 169 250 248 195 170 225 267 238 215 182 250 262 239 186 187 185 192 201 199 197 194 180
218 221 217 204 202 212 216 217 224 220 192 171 170 166 155 148 139 148 216 235 181 105 104 143 150 148 146 150 181 190 136 92 102 138 152 170 180 174 127 144 138 133 154 295 273 42 52 43 282 204 214 161 110 61 29 179 130 136 138 109 102 94 93 117 176 165 225 244 241 198 183 210 261 229 218 220 219 266 4 128 172 176 185 193 192 193 187 177
215 216 207 199 201 207 206 204 212 209 181 168 167 161 154 143 121 203 212 233 67 134 123 143 150 153 160 162 175 171 146 74 134 146 147 155 167 152 132 141 135 142 189 253 233 174 111 190 195 195 174 116 109 91 45 40 120 150 160 142 138 136 144 182 157 167 244 239 189 164 182 207 236 222 224 238 167 103 14 55 172 178 180 183 188 191 183 176
215 214 207 202 205 207 204 200 202 192 177 169 167 164 156 138 227 224 201 86 130 185 152 153 172 175 176 168 132 150 142 135 161 166 156 156 174 175 181 187 166 164 221 218 202 140 207 208 159 138 169 162 147 117 89 81 189 201 175 165 185 193 178 217 200 193 243 234 94 82 157 206 239 240 262 270 150 120 134 62 142 178 177 181 188 188 181 177
218 215 211 206 205 207 206 207 199 184 176 170 169 166 153 187 216 223 202 160 191 174 111 121 141 165 169 160 149 151 130 144 167 170 152 161 189 195 215 241 187 208 238 187 185 184 213 219 158 167 191 191 186 170 167 174 186 195 182 180 195 186 193 224 205 224 259 230 81 111 176 225 250 241 255 264 78 81 116 113 136 169 174 185 189 186 181 179
222 219 216 209 207 210 210 210 198 183 175 169 170 164 166 216 221 211 198 196 207 46 66 105 112 127 164 166 166 163 143 157 167 163 158 169 192 204 214 225 215 252 62 157 191 190 221 263 178 180 165 177 193 202 169 143 165 194 191 197 209 192 208 222 207 241 269 99 109 151 198 216 197 153 264 293 78 98 136 140 157 164 175 186 187 185 183 182
223 225 223 214 210 210 208 202 190 183 177 169 169 170 186 215 228 205 191 179 138 83 70 104 121 137 184 196 36 191 212 211 165 162 176 181 198 202 197 201 199 189 150 183 203 179 228 273 166 155 129 166 185 193 108 125 162 194 120 223 233 217 201 217 258 345 34 8 186 189 235 241 214 114 118 194 161 158 142 141 154 161 175 184 187 188 187 186
222 223 226 222 214 211 206 194 183 183 181 169 166 207 206 221 220 174 182 166 150 139 123 126 143 157 188 186 201 213 236 179 159 175 197 198 229 210 190 197 191 191 189 183 176 169 212 276 98 74 103 172 185 153 135 165 170 149 180 201 208 347 69 148 203 84 73 270 228 174 229 250 245 241 158 166 187 163 154 159 159 162 172 183 189 191 191 189
219 217 223 224 218 212 205 192 179 181 182 176 186 210 215 230 194 158 173 158 141 140 145 181 188 177 187 187 196 194 186 157 167 189 188 174 231 200 185 217 194 196 210 208 212 203 202 249 143 142 169 175 26 113 112 333 130 139 191 188 126 24 332 219 242 180 190 253 253 182 218 209 192 213 151 165 193 186 179 168 160 173 180 189 196 196 194 192
216 214 220 223 219 213 202 187 179 182 182 180 217 218 222 223 194 179 167 141 143 156 178 215 193 175 191 189 184 178 177 176 169 185 187 178 227 182 169 199 197 198 210 214 250 224 206 234 168 129 165 116 113 171 154 221 255 158 200 164 128 224 211 179 224 233 203 239 255 199 211 215 204 195 167 183 198 194 182 162 168 190 192 198 201 199 197 195
213 206 215 222 217 209 200 186 181 184 184 183 215 219 225 214 195 190 179 157 152 173 197 214 199 193 196 178 157 162 180 186 164 173 197 190 209 176 171 188 195 197 199 190 187 171 187 239 217 104 36 113 139 206 193 181 188 0 179 175 214 270 218 176 193 223 213 231 245 211 202 212 207 189 177 186 195 185 167 166 194 202 201 203 203 200 199 196
205 200 216 219 212 205 199 188 182 184 192 210 209 213 211 197 193 194 192 186 179 190 207 211 197 197 189 174 159 163 187 198 173 183 209 185 186 187 186 190 177 188 190 180 191 147 143 226 224 113 89 174 181 206 203 186 173 173 185 184 187 196 238 255 229 198 223 233 236 249 251 209 172 185 181 182 187 173 164 181 201 204 206 208 205 202 200 199
199 201 221 212 208 203 194 183 179 188 208 211 215 224 206 182 191 194 197 202 209 216 220 218 206 199 175 175 182 158 176 196 186 198 214 192 204 219 195 194 167 138 155 162 215 211 175 204 194 145 184 203 202 219 246 216 189 186 193 189 188 179 160 204 218 178 191 249 231 255 273 219 137 282 196 159 159 154 172 194 204 208 211 211 210 207 204 203
200 211 213 201 202 198 187 178 181 190 203 214 219 221 188 140 186 197 197 205 218 229 224 221 219 211 182 175 178 158 167 186 190 202 220 208 213 215 190 190 172 149 149 165 202 189 138 120 187 175 202 207 227 27 343 294 296 269 237 208 194 190 181 200 217 170 160 228 276 328 287 295 114 286 4 75 51 11 214 214 217 221 217 216 216 214 210 208
214 224 201 194 198 192 182 179 198 185 211 225 222 222 199 182 197 198 197 203 214 223 218 219 221 217 209 167 161 170 177 190 193 195 212 218 215 216 185 180 170 158 159 166 174 155 115 170 200 195 210 119 73 131 166 1 301 246 243 216 203 209 198 207 230 149 181 198 160 196 245 230 167 200 44 12 330 286 237 217 214 219 219 219 221 218 213 211
234 228 186 186 193 188 181 181 192 190 216 219 220 227 221 218 208 198 198 199 202 207 214 222 217 217 219 162 175 191 185 197 207 197 203 215 203 206 185 177 173 170 184 189 164 161 163 185 185 180 204 201 192 200 203 194 198 224 224 191 202 207 169 129 95 141 229 201 169 203 239 189 157 127 36 335 290 264 243 224 217 217 217 218 218 218 215 212
237 236 190 186 185 183 187 197 191 192 208 209 215 221 220 227 214 207 204 198 203 206 211 219 206 200 205 182 203 206 192 207 222 200 205 216 182 194 189 184 182 182 201 194 161 161 170 178 176 187 206 206 204 210 211 188 175 214 204 179 200 199 179 173 167 199 225 179 167 210 232 160 116 334 268 239 244 245 236 224 220 218 216 215 210 208 209 211
214 217 209 196 188 186 194 199 195 192 198 202 213 215 216 225 217 210 206 202 208 209 211 216 179 181 198 201 209 213 207 219 230 190 200 201 178 284 196 191 191 191 196 176 161 160 159 201 190 203 214 213 218 225 161 125 153 198 194 185 199 200 191 189 197 210 196 142 198 218 209 195 203 206 221 216 208 223 219 205 211 209 205 203 199 197 199 206
213 179 183 203 203 201 199 195 193 198 199 198 199 206 212 217 217 204 202 207 208 203 210 230 182 193 206 203 210 216 204 211 217 197 199 183 147 18 176 187 196 194 187 175 170 163 80 220 206 216 223 223 243 251 171 157 183 200 191 189 199 196 191 196 210 205 137 153 233 197 155 215 212 181 199 209 200 215 208 191 198 198 196 195 192 194 198 205
222 177 183 195 210 226 215 196 192 197 201 199 199 209 211 213 216 207 198 207 205 194 199 228 211 211 211 202 207 210 191 202 219 211 196 164 146 118 129 178 208 193 171 171 184 175 182 223 214 218 227 230 174 155 213 192 196 201 192 194 195 188 189 198 212 206 157 203 242 157 159 219 217 168 189 200 193 200 192 190 195 192 195 196 191 195 200 205
205 170 190 205 216 300 318 238 197 198 201 198 203 216 213 212 217 213 188 179 199 195 197 213 217 216 213 205 199 198 190 196 215 213 185 165 170 158 149 177 208 194 165 161 196 191 192 223 200 192 227 234 202 174 202 187 190 211 206 204 199 193 193 196 207 208 196 222 242 156 182 231 207 155 190 192 186 188 182 186 190 188 192 192 190 197 203 211
200 187 182 196 223 266 320 325 212 205 205 200 205 213 214 217 220 216 192 178 196 198 198 214 221 211 206 205 200 207 209 205 214 213 176 167 183 181 188 187 164 176 176 172 190 185 192 207 133 138 224 232 199 176 182 188 200 218 226 223 208 190 185 196 208 208 208 230 244 226 248 252 187 155 173 165 166 169 170 179 183 186 191 191 194 201 205 211
218 203 181 172 207 245 248 296 248 221 213 205 209 210 212 220 220 217 211 204 209 206 197 215 223 209 198 204 204 216 220 212 219 213 177 181 195 190 193 178 146 155 176 183 176 167 193 203 104 147 221 227 192 180 184 175 274 258 248 234 210 173 164 193 209 203 202 218 226 231 250 252 186 149 151 155 163 167 170 176 182 189 193 194 200 203 203 205
234 214 193 186 192 212 205 206 233 231 225 212 217 216 216 226 221 214 219 218 218 221 214 218 224 214 204 209 211 223 228 226 238 230 195 196 202 191 187 175 163 165 169 172 176 167 181 189 160 180 212 230 193 179 172 128 134 249 244 222 198 185 181 190 211 214 206 202 204 219 235 233 166 150 159 165 175 184 187 189 194 197 195 197 199 197 201 210
Height
1550 1551 1551 1552 1552 1552 1553 1553 1553 1554 1554 1555 1555 1555 1556 1556 1557 1557 1557 1557 1558 1558 1558 1558 1559 1559 1559 1559 1559 1559 1559 1558 1558 1557 1557 1557 1557 1557 1557 1558 1558 1558 1559 1559 1559 1559 1559 1559 1558 1558 1558 1558 1558 1558 1558 1558 1558 1558 1559 1559 1561 1563 1564 1563 1564 1565 1564 1565 1567 1568 1568 1567 1567 1567 1568 1567 1567 1567 1567 1567 1567 1567 1567 1566 1566 1565 1565 1565
1549 1550 1551 1551 1552 1552 1552 1553 1553 1553 1554 1554 1555 1555 1556 1556 1556 1557 1557 1557 1557 1558 1558 1558 1558 1559 1559 1559 1559 1558 1558 1558 1557 1557 1556 1556 1556 1556 1557 1558 1558 1558 1559 1559 1559 1559 1559 1559 1558 1558 1558 1558 1559 1559 1559 1559 1559 1559 1560 1560 1560 1562 1563 1563 1564 1565 1565 1565 1567 1568 1568 1567 1567 1567 1567 1566 1566 1567 1567 1566 1567 1567 1567 1566 1565 1564 1564 1564
1548 1549 1550 1550 1551 1552 1552 1552 1553 1553 1554 1554 1554 1555 1555 1555 1556 1556 1557 1557 1557 1558 1558 1558 1558 1558 1558 1558 1558 1558 1558 1557 1557 1556 1556 1555 1555 1556 1557 1558 1558 1558 1559 1559 1559 1559 1559 1559 1559 1558 1558 1559 1559 1559 1559 1559 1559 1560 1560 1559 1560 1562 1563 1565 1565 1565 1566 1566 1567 1568 1568 1567 1567 1567 1566 1566 1565 1565 1565 1565 1566 1567 1566 1566 1565 1564 1563 1563
1547 1548 1549 1549 1550 1551 1551 1552 1552 1553 1553 1553 1554 1554 1554 1555 1555 1556 1556 1556 1557 1557 1557 1558 1558 1558 1558 1558 1558 1558 1557 1557 1556 1556 1556 1556 1556 1557 1557 1558 1558 1558 1558 1559 1559 1558 1559 1559 1559 1559 1558 1559 1560 1559 1559 1560 1560 1560 1560 1559 1561 1563 1563 1565 1565 1566 1566 1567 1567 1568 1568 1567 1566 1566 1566 1566 1564 1563 1564 1565 1566 1566 1566 1565 1564 1564 1564 1563
1546 1547 1547 1548 1549 1550 1550 1551 1552 1552 1553 1553 1553 1553 1554 1554 1554 1555 1555 1556 1556 1556 1557 1557 1557 1557 1557 1557 1557 1557 1557 1557 1556 1556 1556 1556 1557 1557 1557 1558 1558 1558 1558 1558 1558 1558 1559 1559 1559 1559 1559 1559 1560 1559 1560 1561 1560 1560 1561 1561 1563 1563 1563 1564 1566 1566 1566 1566 1567 1567 1567 1566 1565 1565 1565 1565 1564 1562 1563 1565 1565 1565 1564 1564 1564 1563 1563 1563
1544 1545 1546 1547 1548 1549 1549 1550 1551 1551 1552 1552 1552 1553 1553 1553 1554 1554 1555 1555 1556 1556 1556 1556 1557 1557 1557 1557 1557 1557 1557 1557 1556 1556 1557 1557 1557 1557 1557 1558 1558 1558 1558 1558 1558 1558 1558 1559 1559 1559 1559 1559 1560 1560 1561 1562 1561 1560 1561 1563 1564 1564 1564 1565 1566 1565 1566 1566 1566 1566 1566 1565 1565 1565 1564 1564 1563 1562 1563 1564 1563 1563 1563 1564 1563 1563 1563 1563
1543 1544 1545 1546 1547 1547 1548 1549 1550 1551 1551 1551 1552 1552 1552 1552 1553 1553 1554 1555 1555 1555 1556 1556 1556 1556 1557 1557 1557 1557 1557 1556 1556 1556 1557 1557 1557 1557 1557 1557 1558 1558 1558 1558 1558 1558 1559 1559 1559 1560 1559 1560 1561 1561 1561 1562 1562 1560 1561 1563 1564 1564 1564 1565 1565 1565 1565 1566 1566 1566 1565 1565 1564 1563 1562 1562 1562 1561 1562 1562 1563 1562 1563 1563 1563 1563 1563 1562
1542 1543 1544 1545 1546 1546 1547 1548 1549 1550 1550 1551 1551 1551 1552 1552 1552 1553 1553 1554 1554 1555 1555 1555 1556 1556 1556 1556 1556 1556 1556 1556 1556 1556 1556 1556 1556 1557 1557 1557 1557 1558 1558 1558 1558 1558 1559 1559 1559 1560 1559 1560 1560 1561 1562 1562 1561 1561 1561 1563 1564 1564 1564 1564 1564 1564 1564 1565 1565 1565 1564 1563 1563 1562 1562 1561 1561 1561 1561 1561 1562 1562 1563 1563 1563 1563 1563 1562
1541 1542 1543 1544 1544 1545 1546 1547 1548 1548 1549 1550 1550 1551 1551 1551 1552 1552 1553 1553 1554 1554 1554 1555 1555 1556 1556 1556 1556 1555 1555 1555 1555 1555 1555 1555 1556 1556 1556 1557 1557 1557 1558 1558 1558 1558 1558 1559 1559 1559 1559 1560 1561 1561 1562 1561 1560 1562 1562 1563 1563 1563 1563 1563 1562 1562 1563 1563 1563 1563 1562 1562 1562 1561 1560 1560 1560 1560 1560 1561 1561 1562 1563 1563 1563 1562 1562 1562
1540 1541 1542 1542 1543 1544 1545 1546 1546 1547 1548 1549 1549 1550 1550 1551 1551 1552 1552 1552 1553 1553 1554 1554 1554 1555 1555 1555 1555 1554 1553 1554 1554 1554 1555 1555 1555 1555 1556 1556 1556 1557 1557 1558 1558 1558 1559 1559 1559 1559 1560 1560 1561 1561 1562 1561 1561 1562 1563 1562 1562 1562 1561 1561 1561 1561 1561 1561 1562 1561 1560 1560 1561 1560 1558 1558 1559 1559 1560 1561 1561 1562 1562 1562 1562 1562 1561 1561
1539 1540 1540 1541 1542 1542 1543 1544 1545 1546 1547 1548 1549 1549 1550 1550 1551 1551 1551 1552 1552 1553 1553 1553 1554 1554 1554 1554 1554 1553 1552 1553 1553 1554 1554 1554 1555 1555 1555 1555 1556 1556 1557 1557 1558 1558 1558 1558 1559 1559 1559 1560 1561 1562 1562 1562 1562 1563 1562 1561 1560 1560 1560 1559 1559 1559 1560 1559 1560 1560 1560 1560 1561 1559 1557 1557 1558 1559 1559 1560 1561 1561 1561 1561 1561 1560 1560 1560
1537 1538 1539 1540 1541 1541 1542 1543 1544 1545 1546 1547 1548 1548 1549 1549 1550 1550 1550 1551 1551 1552 1552 1552 1553 1553 1553 1553 1552 1552 1552 1553 1552 1553 1553 1553 1554 1554 1554 1555 1555 1556 1556 1557 1558 1558 1558 1558 1559 1559 1559 1560 1560 1561 1562 1562 1563 1563 1562 1560 1558 1558 1557 1556 1557 1558 1558 1558 1558 1560 1559 1557 1558 1557 1556 1557 1557 1558 1559 1560 1560 1561 1560 1560 1559 1559 1559 1559
1535 1536 1537 1538 1539 1540 1541 1541 1542 1543 1544 1545 1546 1547 1548 1548 1549 1549 1549 1550 1550 1550 1551 1551 1552 1552 1552 1551 1550 1550 1551 1551 1551 1552 1552 1552 1553 1553 1554 1554 1554 1555 1556 1557 1557 1558 1558 1558 1559 1559 1559 1560 1560 1561 1562 1563 1563 1562 1563 1562 1559 1557 1555 1555 1557 1557 1557 1558 1558 1559 1558 1551 1552 1556 1555 1556 1557 1558 1559 1560 1560 1560 1559 1559 1559 1559 1558 1558
1533 1534 1535 1536 1537 1538 1539 1540 1541 1542 1543 1544 1545 1546 1546 1547 1547 1548 1548 1548 1548 1549 1550 1550 1551 1551 1551 1550 1548 1549 1549 1550 1550 1550 1550 1551 1552 1552 1553 1553 1554 1555 1555 1556 1557 1557 1558 1558 1559 1559 1560 1560 1561 1561 1562 1563 1562 1561 1562 1562 1562 1560 1554 1554 1556 1556 1556 1557 1557 1559 1557 1549 1549 1555 1555 1556 1557 1558 1559 1559 1559 1559 1558 1558 1558 1558 1558 1558
1531 1532 1533 1534 1535 1537 1538 1539 1540 1540 1541 1543 1544 1544 1545 1545 1546 1546 1547 1547 1547 1548 1548 1549 1549 1550 1550 1548 1547 1547 1547 1548 1548 1548 1549 1550 1550 1551 1551 1552 1553 1554 1555 1556 1556 1557 1557 1558 1559 1559 1560 1561 1561 1561 1561 1561 1561 1562 1562 1560 1562 1562 1555 1553 1556 1556 1555 1556 1557 1557 1555 1549 1548 1553 1555 1555 1556 1557 1558 1558 1558 1557 1557 1557 1557 1557 1557 1557
1528 1530 1531 1532 1533 1535 1536 1537 1538 1539 1540 1541 1542 1543 1543 1544 1544 1545 1545 1546 1546 1546 1547 1548 1548 1549 1548 1546 1545 1546 1545 1546 1546 1547 1548 1548 1549 1550 1551 1552 1552 1553 1554 1555 1556 1556 1557 1558 1559 1560 1560 1560 1560 1560 1561 1562 1561 1562 1563 1559 1559 1561 1557 1555 1556 1557 1556 1556 1556 1555 1553 1549 1549 1552 1554 1555 1555 1555 1556 1556 1556 1556 1555 1556 1556 1556 1556 1556
1526 1527 1529 1530 1531 1532 1534 1535 1536 1538 1539 1540 1540 1541 1542 1543 1543 1544 1544 1544 1545 1545 1546 1546 1547 1548 1546 1544 1544 1543 1543 1544 1545 1545 1546 1547 1548 1549 1550 1551 1552 1553 1554 1555 1555 1556 1557 1558 1559 1559 1560 1560 1560 1560 1564 1565 1560 1559 1563 1561 1558 1560 1559 1555 1554 1556 1557 1556 1555 1554 1553 1549 1548 1551 1553 1553 1554 1554 1555 1555 1554 1554 1554 1554 1554 1555 1554 1554
1524 1525 1526 1528 1529 1531 1532 1533 1534 1536 1537 1538 1539 1540 1541 1541 1542 1542 1542 1543 1543 1544 1545 1545 1546 1548 1544 1541 1541 1541 1542 1543 1543 1544 1545 1545 1547 1548 1549 1550 1551 1552 1553 1555 1555 1556 1557 1558 1559 1559 1560 1561 1559 1559 1563 1560 1553 1554 1559 1559 1557 1558 1559 1557 1554 1555 1556 1556 1554 1554 1553 1548 1547 1550 1552 1552 1552 1553 1553 1553 1552 1552 1552 1552 1553 1553 1553 1552
1522 1523 1524 1526 1527 1528 1529 1531 1532 1534 1536 1537 1538 1539 1539 1540 1540 1541 1541 1541 1542 1542 1542 1541 1542 1544 1541 1538 1539 1540 1541 1542 1542 1542 1543 1544 1546 1547 1548 1550 1551 1552 1553 1554 1554 1556 1556 1557 1560 1559 1557 1557 1556 1554 1554 1551 1549 1552 1554 1555 1555 1554 1555 1555 1555 1555 1557 1556 1553 1551 1549 1545 1544 1547 1549 1550 1551 1551 1551 1550 1550 1550 1550 1550 1551 1551 1551 1551
1519 1520 1522 1523 1525 1526 1527 1529 1530 1532 1534 1535 1536 1538 1538 1539 1540 1539 1538 1538 1537 1537 1537 1537 1537 1539 1538 1537 1539 1539 1540 1541 1541 1541 1542 1543 1545 1546 1548 1549 1550 1552 1552 1551 1553 1555 1556 1557 1556 1552 1549 1550 1551 1550 1550 1551 1553 1555 1556 1556 1556 1554 1552 1552 1556 1557 1558 1557 1551 1549 1548 1544 1542 1543 1545 1548 1549 1549 1548 1548 1548 1548 1548 1548 1549 1549 1549 1550
1516 1518 1519 1521 1523 1524 1525 1527 1528 1530 1532 1533 1535 1536 1536 1537 1537 1536 1535 1534 1533 1534 1534 1535 1536 1536 1536 1537 1538 1538 1539 1540 1540 1540 1541 1542 1544 1546 1547 1548 1549 1550 1551 1551 1553 1554 1556 1555 1549 1544 1545 1548 1549 1550 1552 1554 1556 1557 1557 1557 1556 1555 1553 1552 1556 1558 1560 1559 1552 1550 1551 1545 1541 1541 1542 1546 1546 1546 1545 1545 1546 1546 1547 1547 1547 1548 1548 1548
1514 1515 1517 1519 1520 1521 1523 1525 1526 1528 1530 1532 1533 1534 1534 1535 1535 1535 1534 1533 1531 1531 1532 1532 1533 1533 1534 1535 1536 1537 1538 1538 1539 1539 1540 1542 1543 1543 1545 1547 1547 1547 1550 1552 1552 1555 1556 1551 1543 1543 1546 1549 1551 1552 1554 1555 1557 1557 1558 1560 1558 1555 1553 1552 1556 1559 1560 1559 1552 1552 1553 1544 1538 1538 1539 1542 1542 1543 1543 1543 1545 1545 1546 1546 1546 1546 1546 1547
1511 1512 1515 1516 1517 1520 1521 1522 1524 1525 1528 1529 1530 1532 1533 1533 1534 1534 1535 1533 1529 1527 1528 1528 1529 1529 1530 1532 1533 1535 1536 1536 1537 1537 1538 1540 1540 1542 1542 1544 1545 1546 1550 1549 1548 1552 1553 1546 1541 1544 1547 1549 1553 1555 1555 1556 1557 1556 1557 1559 1556 1554 1556 1552 1554 1559 1560 1559 1555 1555 1553 1541 1534 1534 1535 1539 1540 1541 1542 1543 1544 1545 1545 1545 1545 1545 1545 1545
1507 1510 1512 1513 1516 1517 1518 1521 1522 1523 1525 1527 1528 1530 1531 1533 1533 1534 1534 1533 1527 1524 1524 1524 1525 1525 1525 1527 1529 1531 1533 1533 1534 1534 1536 1537 1538 1540 1540 1541 1544 1546 1546 1544 1543 1545 1544 1542 1543 1545 1546 1548 1552 1555 1556 1555 1554 1553 1554 1555 1551 1551 1555 1552 1553 1558 1557 1558 1558 1557 1552 1537 1528 1530 1530 1536 1541 1541 1541 1542 1543 1543 1543 1543 1543 1543 1544 1544
1505 1507 1509 1511 1514 1514 1517 1519 1519 1521 1523 1524 1527 1528 1530 1531 1532 1534 1534 1533 1527 1520 1521 1521 1521 1521 1520 1523 1526 1528 1530 1529 1530 1531 1533 1535 1535 1537 1539 1540 1542 1542 1541 1542 1545 1543 1540 1542 1544 1546 1548 1548 1550 1552 1552 1552 1550 1550 1550 1550 1549 1548 1551 1552 1556 1559 1556 1555 1555 1557 1553 1535 1524 1526 1529 1534 1539 1539 1540 1541 1541 1541 1541 1541 1541 1542 1542 1542
1502 1504 1507 1509 1511 1513 1516 1516 1517 1520 1520 1523 1526 1527 1530 1530 1533 1534 1533 1537 1528 1515 1516 1517 1516 1516 1516 1519 1522 1526 1529 1526 1525 1528 1530 1533 1533 1535 1537 1538 1539 1539 1539 1543 1547 1544 1541 1543 1543 1546 1548 1548 1550 1548 1548 1549 1550 1550 1548 1547 1548 1548 1551 1554 1557 1559 1556 1553 1555 1558 1555 1539 1526 1522 1525 1534 1537 1535 1537 1537 1537 1538 1538 1539 1539 1540 1540 1540
1499 1502 1504 1506 1508 1511 1513 1513 1515 1517 1518 1522 1523 1526 1529 1529 1533 1532 1534 1542 1527 1505 1508 1512 1512 1512 1512 1516 1518 1522 1526 1520 1521 1526 1527 1529 1532 1533 1534 1535 1538 1539 1539 1545 1547 1541 1539 1543 1545 1545 1546 1549 1548 1545 1545 1547 1548 1548 1548 1549 1549 1549 1552 1554 1556 1557 1553 1552 1556 1557 1555 1550 1539 1525 1524 1534 1533 1529 1531 1532 1532 1534 1535 1536 1537 1538 1538 1539
1497 1500 1502 1504 1506 1508 1509 1511 1513 1515 1518 1521 1521 1526 1527 1528 1533 1530 1537 1546 1519 1495 1503 1507 1508 1509 1510 1515 1516 1517 1519 1516 1519 1524 1524 1527 1530 1532 1532 1531 1533 1536 1538 1541 1540 1536 1536 1541 1542 1542 1545 1545 1542 1540 1542 1545 1546 1547 1550 1551 1550 1551 1552 1553 1555 1555 1554 1556 1554 1552 1555 1556 1542 1525 1524 1531 1529 1523 1520 1522 1526 1529 1532 1533 1534 1536 1537 1538
1495 1497 1499 1502 1504 1506 1508 1509 1511 1514 1517 1519 1521 1524 1525 1530 1531 1529 1544 1543 1506 1492 1503 1504 1507 1510 1509 1514 1515 1515 1516 1516 1518 1521 1524 1527 1528 1530 1531 1531 1532 1535 1537 1537 1534 1535 1538 1539 1539 1539 1541 1539 1539 1542 1543 1543 1544 1548 1552 1552 1552 1555 1555 1555 1556 1553 1557 1561 1551 1545 1551 1551 1537 1521 1521 1528 1525 1517 1513 1516 1522 1525 1529 1531 1533 1535 1536 1538
1492 1494 1497 1500 1501 1503 1505 1506 1510 1513 1516 1518 1520 1522 1525 1529 1529 1536 1551 1529 1492 1494 1505 1502 1507 1509 1509 1514 1516 1516 1517 1517 1518 1521 1525 1527 1528 1530 1530 1532 1534 1535 1538 1538 1536 1537 1538 1539 1539 1539 1537 1536 1540 1545 1546 1545 1546 1548 1550 1550 1553 1555 1555 1556 1555 1553 1559 1555 1544 1540 1542 1544 1540 1523 1514 1516 1516 1513 1512 1516 1521 1523 1527 1530 1532 1534 1536 1537
1488 1491 1494 1495 1496 1498 1500 1503 1507 1511 1515 1516 1518 1522 1524 1527 1530 1538 1534 1503 1486 1498 1502 1503 1508 1507 1507 1509 1511 1515 1517 1519 1519 1520 1523 1525 1527 1530 1530 1532 1535 1537 1540 1539 1537 1538 1539 1540 1538 1537 1536 1537 1540 1545 1548 1549 1549 1548 1547 1547 1551 1554 1554 1556 1555 1558 1559 1546 1540 1545 1543 1544 1542 1523 1508 1508 1511 1514 1515 1516 1519 1521 1525 1528 1530 1533 1535 1537
1486 1488 1490 1491 1493 1495 1496 1500 1505 1510 1513 1513 1517 1520 1520 1530 1534 1524 1506 1490 1490 1495 1493 1500 1505 1504 1506 1505 1507 1513 1514 1517 1519 1519 1521 1523 1525 1525 1524 1524 1527 1534 1538 1535 1535 1538 1537 1535 1535 1535 1536 1537 1537 1542 1549 1552 1550 1548 1545 1546 1550 1552 1556 1555 1553 1555 1551 1541 1544 1551 1548 1545 1535 1516 1507 1506 1510 1515 1516 1517 1518 1520 1523 1526 1528 1531 1534 1536
1482 1485 1487 1488 1490 1491 1494 1499 1504 1509 1510 1511 1517 1517 1519 1530 1521 1500 1491 1489 1489 1489 1490 1496 1500 1502 1505 1505 1508 1512 1512 1515 1518 1519 1520 1521 1523 1522 1521 1521 1521 1524 1526 1527 1533 1537 1534 1532 1534 1536 1534 1533 1531 1533 1541 1545 1547 1545 1540 1541 1543 1547 1556 1555 1550 1551 1544 1540 1548 1550 1546 1540 1526 1512 1507 1507 1511 1516 1517 1518 1518 1519 1522 1524 1527 1530 1533 1535
1479 1481 1483 1484 1487 1489 1492 1497 1502 1505 1507 1510 1515 1516 1522 1521 1497 1482 1487 1486 1486 1491 1493 1496 1500 1504 1504 1505 1508 1508 1511 1515 1516 1518 1521 1522 1523 1521 1519 1520 1520 1520 1522 1527 1531 1532 1531 1525 1524 1527 1526 1525 1525 1523 1525 1531 1538 1539 1534 1535 1535 1535 1541 1541 1538 1537 1535 1538 1549 1553 1543 1526 1514 1510 1510 1511 1514 1517 1517 1517 1518 1519 1521 1524 1526 1530 1532 1534
1475 1478 1479 1480 1483 1485 1488 1493 1498 1502 1504 1507 1511 1514 1515 1502 1481 1476 1482 1481 1487 1494 1496 1497 1501 1504 1506 1506 1508 1506 1507 1512 1515 1517 1519 1518 1517 1514 1513 1514 1517 1518 1520 1524 1525 1527 1528 1518 1514 1520 1520 1519 1522 1521 1522 1527 1535 1538 1536 1537 1535 1526 1526 1536 1540 1539 1539 1541 1543 1545 1533 1513 1506 1509 1511 1514 1515 1516 1517 1517 1518 1519 1520 1523 1526 1528 1531 1533
1471 1474 1475 1475 1476 1479 1484 1488 1493 1498 1500 1503 1509 1508 1495 1477 1469 1473 1474 1475 1483 1490 1495 1500 1500 1502 1506 1506 1508 1508 1505 1508 1514 1516 1516 1517 1514 1510 1509 1507 1510 1513 1511 1513 1517 1521 1524 1519 1517 1522 1521 1521 1522 1521 1523 1524 1527 1536 1538 1534 1531 1526 1525 1536 1547 1550 1550 1540 1527 1527 1523 1512 1509 1507 1508 1514 1513 1513 1516 1516 1516 1518 1519 1522 1524 1526 1528 1530
1465 1467 1468 1467 1468 1473 1479 1484 1488 1492 1495 1498 1500 1492 1478 1467 1466 1469 1470 1471 1477 1481 1488 1493 1491 1494 1499 1500 1502 1505 1505 1506 1511 1511 1512 1515 1509 1503 1506 1504 1503 1506 1503 1504 1508 1509 1512 1514 1518 1522 1521 1523 1524 1523 1525 1524 1523 1530 1533 1526 1526 1531 1530 1530 1535 1541 1544 1536 1521 1518 1516 1510 1509 1507 1505 1509 1509 1509 1512 1514 1516 1518 1518 1520 1521 1523 1525 1528
1457 1461 1462 1460 1463 1467 1474 1479 1482 1487 1490 1493 1492 1481 1470 1465 1464 1465 1467 1469 1472 1477 1480 1481 1482 1484 1488 1491 1494 1499 1502 1502 1507 1508 1507 1509 1500 1490 1496 1500 1498 1499 1498 1501 1506 1505 1506 1509 1517 1524 1523 1523 1525 1524 1525 1525 1524 1525 1524 1521 1523 1529 1528 1529 1532 1532 1533 1531 1519 1515 1514 1507 1501 1499 1499 1502 1501 1502 1506 1511 1514 1515 1516 1517 1518 1520 1523 1526
1451 1455 1453 1451 1457 1463 1469 1473 1476 1482 1484 1485 1485 1474 1461 1459 1461 1463 1466 1467 1469 1473 1473 1471 1475 1479 1481 1483 1486 1493 1498 1496 1500 1502 1498 1499 1494 1485 1487 1490 1491 1494 1496 1500 1503 1504 1505 1507 1512 1522 1524 1523 1525 1524 1521 1522 1525 1526 1524 1522 1523 1522 1520 1522 1524 1520 1520 1521 1514 1513 1514 1502 1490 1488 1490 1492 1492 1494 1500 1507 1509 1509 1510 1512 1514 1517 1520 1524
1443 1446 1441 1441 1451 1458 1464 1467 1471 1476 1476 1473 1471 1461 1454 1457 1460 1462 1464 1464 1465 1467 1466 1465 1469 1475 1478 1480 1481 1486 1491 1490 1493 1494 1489 1488 1487 1484 1484 1483 1485 1490 1494 1499 1502 1503 1507 1506 1507 1520 1527 1523 1519 1515 1509 1508 1515 1520 1520 1520 1522 1521 1521 1521 1518 1514 1514 1513 1511 1511 1505 1490 1485 1486 1484 1485 1488 1490 1495 1500 1502 1504 1507 1509 1512 1515 1518 1521
1438 1439 1433 1435 1445 1452 1459 1464 1462 1465 1468 1465 1460 1454 1453 1456 1458 1460 1462 1463 1463 1462 1462 1463 1464 1467 1472 1477 1477 1479 1485 1488 1488 1487 1484 1482 1480 1478 1478 1477 1480 1486 1494 1502 1503 1500 1503 1504 1505 1517 1522 1515 1507 1505 1505 1504 1504 1506 1506 1506 1507 1511 1517 1518 1515 1516 1517 1511 1506 1509 1501 1487 1486 1491 1487 1486 1490 1491 1494 1497 1499 1502 1504 1507 1510 1513 1516 1519
1434 1431 1426 1429 1438 1444 1453 1455 1453 1456 1459 1455 1448 1447 1451 1453 1455 1459 1461 1462 1462 1461 1462 1463 1461 1462 1465 1468 1470 1474 1479 1483 1485 1483 1478 1475 1471 1469 1470 1472 1475 1479 1485 1493 1493 1490 1496 1501 1504 1510 1511 1507 1506 1508 1510 1508 1506 1505 1503 1500 1499 1500 1503 1504 1505 1510 1518 1514 1508 1512 1507 1492 1489 1494 1493 1492 1494 1494 1496 1497 1498 1501 1503 1505 1508 1510 1514 1516
1430 1427 1424 1424 1429 1437 1445 1447 1448 1453 1451 1444 1442 1445 1449 1449 1452 1456 1457 1459 1459 1459 1461 1460 1458 1460 1461 1461 1465 1469 1471 1473 1476 1475 1471 1470 1468 1466 1467 1471 1473 1476 1478 1482 1485 1489 1496 1498 1501 1505 1505 1505 1507 1508 1509 1510 1509 1507 1502 1500 1499 1496 1494 1496 1498 1501 1506 1506 1507 1513 1509 1494 1491 1495 1495 1494 1495 1496 1496 1497 1498 1500 1501 1503 1505 1507 1510 1513
1427 1428 1425 1422 1422 1428 1435 1438 1442 1446 1442 1439 1443 1446 1446 1445 1447 1449 1450 1452 1453 1455 1457 1456 1455 1456 1457 1458 1461 1462 1464 1465 1465 1466 1466 1467 1466 1465 1467 1469 1470 1471 1472 1473 1476 1484 1491 1493 1496 1504 1506 1506 1508 1508 1507 1508 1507 1500 1494 1496 1496 1494 1497 1502 1503 1504 1500 1494 1497 1502 1497 1489 1490 1495 1495 1495 1496 1495 1496 1496 1497 1498 1500 1501 1503 1504 1507 1510
1426 1427 1425 1422 1418 1419 1422 1425 1429 1435 1437 1439 1442 1442 1441 1441 1440 1441 1444 1447 1448 1450 1451 1450 1451 1452 1455 1457 1457 1457 1457 1456 1457 1462 1464 1465 1466 1465 1466 1467 1467 1466 1467 1468 1470 1475 1481 1483 1486 1494 1498 1496 1493 1490 1486 1488 1495 1494 1491 1493 1493 1492 1496 1497 1499 1503 1499 1492 1492 1490 1484 1486 1493 1495 1494 1496 1497 1495 1495 1495 1495 1497 1498 1499 1501 1503 1505 1507
1422 1422 1423 1422 1417 1413 1414 1417 1422 1428 1432 1436 1438 1436 1436 1435 1433 1436 1441 1443 1444 1445 1446 1446 1448 1450 1453 1454 1453 1454 1454 1453 1455 1459 1461 1462 1464 1465 1465 1465 1466 1466 1467 1468 1469 1471 1476 1476 1473 1474 1474 1471 1469 1468 1467 1471 1482 1487 1486 1488 1488 1488 1491 1492 1493 1493 1491 1494 1491 1479 1477 1486 1493 1494 1493 1494 1495 1494 1492 1493 1494 1495 1496 1497 1499 1501 1502 1504
1418 1416 1416 1418 1416 1411 1410 1413 1418 1420 1421 1425 1428 1427 1427 1429 1430 1434 1437 1436 1436 1440 1443 1444 1444 1445 1445 1446 1448 1450 1451 1453 1455 1455 1455 1458 1462 1465 1465 1465 1466 1467 1467 1468 1468 1469 1473 1472 1467 1464 1464 1461 1463 1467 1467 1467 1470 1474 1479 1483 1484 1485 1489 1490 1487 1481 1483 1491 1484 1472 1476 1482 1483 1487 1490 1490 1491 1491 1490 1491 1492 1492 1494 1496 1497 1499 1500 1502
1412 1411 1410 1412 1412 1410 1408 1406 1408 1411 1415 1420 1422 1421 1423 1425 1426 1428 1430 1430 1431 1436 1440 1442 1439 1434 1433 1437 1443 1447 1451 1454 1453 1449 1450 1455 1460 1464 1466 1467 1467 1466 1467 1470 1470 1469 1469 1465 1462 1464 1464 1462 1467 1471 1468 1465 1464 1466 1471 1475 1477 1481 1484 1485 1481 1477 1479 1480 1471 1469 1477 1476 1473 1480 1484 1484 1485 1485 1486 1488 1489 1491 1493 1494 1495 1497 1498 1499
1407 1407 1408 1410 1409 1409 1408 1406 1406 1408 1412 1417 1419 1418 1419 1420 1419 1418 1422 1427 1430 1429 1431 1432 1429 1427 1429 1432 1437 1441 1444 1445 1443 1442 1446 1451 1455 1459 1462 1464 1465 1465 1465 1468 1469 1468 1466 1462 1462 1467 1466 1465 1468 1470 1468 1468 1467 1466 1467 1468 1469 1473 1475 1476 1477 1476 1476 1472 1466 1472 1478 1473 1471 1476 1478 1479 1481 1481 1484 1486 1487 1489 1490 1491 1493 1495 1495 1497
1403 1402 1404 1408 1409 1408 1408 1408 1408 1408 1408 1411 1413 1412 1413 1413 1412 1413 1416 1420 1422 1423 1424 1422 1419 1421 1427 1429 1431 1432 1428 1425 1426 1431 1438 1445 1449 1451 1452 1452 1456 1462 1465 1464 1465 1466 1465 1463 1463 1467 1468 1467 1468 1470 1470 1470 1467 1466 1467 1465 1464 1468 1473 1476 1476 1475 1476 1472 1469 1475 1478 1472 1470 1473 1475 1477 1479 1481 1483 1484 1485 1487 1488 1489 1491 1492 1493 1495
1400 1399 1400 1405 1408 1408 1408 1409 1409 1407 1405 1406 1407 1406 1408 1408 1407 1409 1411 1411 1412 1416 1418 1416 1414 1418 1424 1426 1427 1423 1417 1417 1421 1424 1429 1433 1435 1437 1440 1441 1446 1455 1461 1462 1462 1462 1464 1466 1467 1470 1469 1465 1466 1470 1471 1471 1473 1473 1468 1460 1461 1466 1471 1474 1472 1470 1471 1470 1472 1477 1474 1467 1467 1470 1474 1476 1477 1479 1481 1482 1484 1485 1485 1487 1488 1489 1491 1492
1398 1398 1398 1401 1405 1406 1407 1408 1409 1407 1403 1402 1401 1401 1403 1402 1403 1408 1412 1411 1410 1412 1413 1412 1414 1418 1422 1423 1420 1416 1415 1419 1424 1425 1426 1428 1429 1431 1435 1437 1439 1445 1452 1458 1460 1460 1461 1463 1466 1467 1464 1461 1467 1470 1471 1476 1480 1469 1451 1445 1454 1461 1464 1467 1467 1464 1463 1464 1468 1469 1464 1460 1464 1468 1471 1475 1476 1477 1478 1479 1481 1482 1483 1484 1485 1487 1489 1491